TimeCDT,TemperatureF,Dew PointF,Humidity,Sea Level PressureIn,VisibilityMPH,Wind Direction,Wind SpeedMPH,Gust SpeedMPH,PrecipitationIn,Events,Conditions,WindDirDegrees,DateUTC
12:54 AM,54.0,45.0,72,30.07,10.0,South,6.9,-,N/A,,Clear,190,2013-09-15 05:54:00
1:54 AM,55.0,45.0,69,30.06,10.0,South,5.8,-,N/A,,Clear,170,2013-09-15 06:54:00
2:54 AM,55.9,45.0,67,30.04,10.0,South,9.2,-,N/A,,Clear,180,2013-09-15 07:54:00
3:54 AM,54.0,45.0,72,30.06,10.0,South,6.9,-,N/A,,Clear,180,2013-09-15 08:54:00
4:54 AM,53.1,46.0,77,30.06,10.0,South,5.8,-,N/A,,Clear,180,2013-09-15 09:54:00
5:54 AM,54.0,46.0,75,30.07,10.0,South,5.8,-,N/A,,Clear,190,2013-09-15 10:54:00
6:54 AM,54.0,46.0,75,30.08,10.0,Calm,Calm,-,N/A,,Clear,0,2013-09-15 11:54:00
7:54 AM,55.0,46.9,74,30.09,10.0,Calm,Calm,-,N/A,,Clear,0,2013-09-15 12:54:00
8:54 AM,62.1,48.9,62,30.08,10.0,SSW,10.4,-,N/A,,Partly Cloudy,200,2013-09-15 13:54:00
9:54 AM,68.0,48.9,50,30.07,10.0,SSW,12.7,-,N/A,,Mostly Cloudy,200,2013-09-15 14:54:00
10:54 AM,69.1,48.9,49,30.07,10.0,South,13.8,-,N/A,,Mostly Cloudy,190,2013-09-15 15:54:00
11:54 AM,73.9,46.9,38,30.05,10.0,SSW,12.7,-,N/A,,Clear,200,2013-09-15 16:54:00
12:54 PM,75.0,46.9,37,30.04,10.0,South,13.8,-,N/A,,Scattered Clouds,190,2013-09-15 17:54:00
1:54 PM,77.0,48.9,37,30.01,10.0,South,13.8,19.6,N/A,,Mostly Cloudy,180,2013-09-15 18:54:00
2:54 PM,77.0,48.9,37,30.00,10.0,SSW,13.8,-,N/A,,Overcast,200,2013-09-15 19:54:00
3:54 PM,77.0,50.0,39,30.01,10.0,SW,12.7,-,N/A,,Mostly Cloudy,220,2013-09-15 20:54:00
4:54 PM,75.0,51.1,43,30.01,10.0,SW,5.8,-,0.00,,Mostly Cloudy,230,2013-09-15 21:54:00
5:54 PM,73.9,53.1,48,30.02,10.0,SW,3.5,-,0.00,,Overcast,220,2013-09-15 22:54:00
6:54 PM,73.0,55.0,53,30.03,10.0,WSW,3.5,-,N/A,,Overcast,250,2013-09-15 23:54:00
7:54 PM,73.0,55.0,53,30.04,10.0,WNW,3.5,-,N/A,,Overcast,300,2013-09-16 00:54:00
8:54 PM,68.0,59.0,73,30.07,10.0,North,16.1,-,N/A,,Overcast,360,2013-09-16 01:54:00
9:39 PM,64.4,60.8,88,30.09,9.0,North,9.2,-,N/A,,Overcast,350,2013-09-16 02:39:00
9:54 PM,64.0,60.1,87,30.09,6.0,North,-9999.0,-,0.00,Rain,Light Rain,0,2013-09-16 02:54:00
10:54 PM,63.0,60.1,90,30.10,4.0,NNE,11.5,-,0.01,Rain,Light Rain,20,2013-09-16 03:54:00
11:54 PM,61.0,57.9,90,30.12,8.0,North,11.5,-,0.00,,Overcast,10,2013-09-16 04:54:00